MST,Max TemperatureF,Mean TemperatureF,Min TemperatureF,Max Dew PointF,MeanDew PointF,Min DewpointF,Max Humidity, Mean Humidity, Min Humidity, Max Sea Level PressureIn, Mean Sea Level PressureIn, Min Sea Level PressureIn, Max VisibilityMiles, Mean VisibilityMiles, Min VisibilityMiles, Max Wind SpeedMPH, Mean Wind SpeedMPH, Max Gust SpeedMPH,PrecipitationIn, CloudCover, Events, WindDirDegrees
2013-2-1,46,37,28,31,25,21,75,61,46,30.25,30.12,29.97,10,10,9,29,16,33,T,6,Rain-Snow,271
2013-2-2,50,37,24,26,21,18,75,54,33,30.34,30.28,30.20,10,10,10,30,16,36,0.00,0,,251
2013-2-3,54,42,30,23,19,14,63,42,20,30.16,30.00,29.89,10,10,10,31,17,39,0.00,1,,257
2013-2-4,53,42,31,24,22,19,63,46,29,29.94,29.87,29.81,10,10,10,31,17,39,0.00,7,,272
2013-2-5,50,41,31,27,24,22,69,54,39,29.96,29.86,29.75,10,10,10,21,14,25,0.00,4,,237
2013-2-6,50,41,31,23,19,14,64,45,26,30.09,29.93,29.76,10,10,10,25,13,33,0.00,2,,269
2013-2-7,44,34,24,22,19,17,75,56,37,30.12,30.04,29.94,10,10,10,18,9,22,0.00,1,,225
2013-2-8,43,34,25,22,19,17,69,53,36,30.00,29.95,29.90,10,10,10,17,7,19,0.00,1,,235
2013-2-9,41,32,22,27,22,18,88,66,44,29.95,29.90,29.77,10,9,2,16,7,21,T,5,Snow,285
2013-2-10,29,23,16,26,19,14,92,77,62,30.25,30.08,29.89,10,7,1,28,11,35,0.08,7,Snow,351
2013-2-11,30,22,13,15,11,8,92,73,53,30.21,30.10,30.00,10,10,3,29,21,34,0.00,1,,238
2013-2-12,40,30,20,18,13,9,67,54,40,30.15,30.07,29.94,10,10,10,28,18,33,0.00,2,,230
2013-2-13,51,40,28,34,24,14,85,60,34,30.17,29.99,29.85,10,8,1,37,18,47,0.05,6,Fog-Rain-Snow,332
2013-2-14,32,29,25,25,20,13,100,73,45,30.41,30.31,30.11,10,7,1,25,14,32,0.05,8,Fog-Snow,270
2013-2-15,40,32,23,27,23,20,92,76,59,30.46,30.34,30.21,10,9,1,26,14,31,0.02,5,Snow,230
2013-2-16,49,39,28,25,21,18,69,54,38,30.20,30.01,29.74,10,10,10,28,19,34,0.00,0,,235
2013-2-17,44,37,30,27,22,16,72,53,33,30.01,29.79,29.67,10,10,9,35,18,45,T,5,Snow,294
2013-2-18,34,27,19,25,19,15,92,74,56,30.18,30.10,29.98,10,9,1,14,6,16,0.02,5,Snow,276
2013-2-19,30,22,14,18,15,12,92,77,62,30.10,29.95,29.87,10,10,10,12,6,12,0.00,2,,21
2013-2-20,31,24,16,18,16,15,92,80,68,29.99,29.92,29.78,10,10,8,14,6,16,T,3,Snow,47
2013-2-21,38,29,20,24,20,17,92,72,52,30.04,29.97,29.88,10,7,2,18,7,23,0.04,5,Snow,204
2013-2-22,41,32,23,18,16,12,74,52,30,30.00,29.87,29.67,10,10,10,23,16,29,0.00,3,,237
2013-2-23,38,34,29,31,24,13,100,69,37,30.04,29.73,29.60,10,7,0,25,12,29,0.03,7,Fog-Snow,263
2013-2-24,41,33,24,22,17,13,69,53,37,30.22,30.13,30.06,10,10,10,21,11,22,0.00,2,,261
2013-2-25,46,36,26,21,15,12,58,43,27,30.05,29.91,29.81,10,10,10,28,16,36,0.00,3,,242
2013-2-26,44,36,28,20,16,12,63,46,29,30.27,30.10,29.91,10,10,10,25,15,30,0.00,4,,307
2013-2-27,47,34,20,19,15,11,69,48,27,30.33,30.25,30.16,10,10,10,21,12,27,0.00,4,,241
2013-2-28,49,39,28,19,16,14,58,42,26,30.33,30.25,30.13,10,10,10,25,13,33,0.00,4,,266